Location: Feuquerolles
(49.2560°N, 1.4573°E)
Time: 10:41:41
(UTC+00:00)

Daily predictions for brighter satellites

Satellite Brightness Start Highest point End
(mag) Time Altitude Azimuth Time Altitude Azimuth Time Altitude Azimuth
SAR-Lupe-2 3.5 18:41:21 10° SSE 18:44:55 72° ENE 18:48:30 10° N
ATLAS 2AS CENTAUR R/B 4.2 18:43:08 10° W 18:49:40 35° NNW 18:55:59 10° NE
Meteor PRIRODA 3.4 18:46:28 10° SSE 18:49:41 55° ENE 18:52:56 10° N
Cosmos 1125 Rocket 4.2 18:45:28 10° N 18:50:14 35° NE 18:54:59 10° ESE
Cosmos 1842 3.5 18:48:21 10° N 18:51:49 41° ENE 18:55:15 10° SSE
USA 59 Rocket 0.1 18:49:32 10° NW 18:53:18 84° SW 18:58:29 10° SE
Cosmos 1536 3.8 18:51:11 10° SE 18:54:16 24° E 18:57:22 10° NE
Okean 3 Rocket 4.4 18:50:52 10° SSE 18:54:44 29° E 18:58:35 10° NNE
Cosmos 2061 Rocket 4.3 18:49:02 10° S 18:55:28 82° W 19:01:57 10° N
Cosmos 1707 3.1 18:52:17 10° N 18:55:37 37° ENE 18:58:56 10° SE
COSMOS 2428 2.7 18:50:01 10° SSW 18:55:39 64° ESE 19:01:20 10° NNE
Cosmos 1515 Rocket 4.3 18:51:54 10° N 18:55:50 33° ENE 18:59:47 10° SE
Cosmos 1818 3.8 18:55:17 10° SW 19:00:45 77° NW 19:06:17 10° NE
Okean O Rocket 2.7 18:57:46 10° ESE 19:01:27 26° ENE 19:05:07 10° N
Cosmos 2278 Rocket 2.2 19:00:37 10° NNW 19:06:18 71° ENE 19:11:57 10° SE
USA 306 2.2 19:04:25 10° WSW 19:07:29 88° NNW 19:11:08 10° ENE
CZ-4B DEB 4.2 19:03:42 10° SSE 19:09:13 85° ENE 19:14:45 10° NNW
CZ-4 R/B 1.2 19:06:25 10° SSE 19:10:13 73° ENE 19:14:07 10° N
NOSS 2-1 (C) 4.1 19:09:55 10° NW 19:13:38 57° SW 19:18:42 10° SSE
CZ-4B R/B 3.3 19:08:25 10° SE 19:13:44 57° ENE 19:19:00 10° N
Cosmos 1766 Rocket 3.5 19:09:55 10° S 19:14:16 82° E 19:18:41 10° NNE
Resurs 01 Rocket 1.7 19:11:26 10° SSE 19:15:47 58° ENE 19:20:09 10° N
Meteor 2-17 Rocket 4.4 19:09:45 10° N 19:15:49 72° ENE 19:21:52 10° SSE
Helios 1A 2.8 19:12:32 10° NNE 19:16:37 73° ESE 19:20:39 10° S
USA 290 2.3 19:13:29 10° NNW 19:16:47 81° WSW 19:20:05 10° SSE
ADEOS 4.0 19:13:14 10° S 19:18:26 67° WSW 19:23:39 10° NNW
GEOS 3 Rocket 3.7 19:13:50 10° SE 19:19:05 83° SW 19:24:17 10° NW
USA 186 1.7 19:17:53 10° SSE 19:21:03 64° ENE 19:24:16 10° N
CZ-4B R/B 3.9 19:16:36 10° S 19:21:17 60° WSW 19:26:04 10° NNW
Cosmos 1814 Rocket 4.0 19:16:41 10° SSW 19:21:59 89° ESE 19:27:16 10° NNE
Cosmos 2360 Rocket 4.3 19:17:27 10° WSW 19:22:17 28° NW 19:27:08 10° NNE
PAYLOAD B 4.2 19:16:45 10° SSE 19:22:21 85° ENE 19:28:00 10° NNW
KORONAS-FOTON 3.8 19:19:03 10° NNW 19:22:46 79° W 19:26:26 10° S
Cosmos 1743 4.2 19:19:32 10° SW 19:22:52 37° WNW 19:26:14 10° N
SPOT 5 3.9 19:22:14 18° ESE 19:24:27 25° ENE 19:28:05 10° N
Okean-O 3.7 19:23:05 18° ESE 19:25:13 27° ENE 19:28:55 10° N
USA 267 4.1 19:21:44 10° ENE 19:27:53 46° N 19:34:02 10° WNW
Cosmos 1408 Rocket 4.1 19:24:24 10° SSE 19:28:25 37° E 19:32:29 10° NNE
ISS -3.3 19:26:07 10° SW 19:29:17 40° SSE 19:30:43 25° E
SPOT 1/Viking Rocket 4.2 19:24:31 10° S 19:29:36 57° W 19:34:42 10° NNW
NOSS 3-3 (A) 4.4 19:25:11 10° S 19:29:51 32° ESE 19:35:10 10° NE
CZ-4B R/B 3.1 19:26:26 10° S 19:30:17 71° WSW 19:34:21 10° NNW
Kosmos-1783 4.1 19:30:03 10° WSW 19:31:58 27° NW 19:33:12 13° NNE
SL-08 R/B 3.9 19:28:16 10° N 19:33:10 66° WNW 19:38:02 10° SSW
Cosmos 2237 Rocket 2.2 19:29:14 10° S 19:34:41 54° ESE 19:40:09 10° NE
Aureole 3 Rocket 4.2 19:31:15 10° SSE 19:37:27 39° E 19:42:01 10° NNE
CSL-04 Rocket 3.6 19:32:10 10° SSE 19:37:30 77° ENE 19:42:50 10° NNW
Cosmos 2219 Rocket 3.9 19:34:21 10° WSW 19:39:32 35° NW 19:44:44 10° NNE
Cosmos 1674 4.4 19:37:28 10° NNW 19:40:22 28° W 19:43:16 10° SSW
Cosmos 1356 Rocket 3.8 19:38:35 10° NNW 19:42:45 65° W 19:46:53 10° S
Meteor 1-14 Rocket 4.4 19:37:56 10° SSW 19:43:27 76° WNW 19:49:02 10° N
Lacrosse 4 Rocket 4.2 19:41:38 10° WNW 19:44:25 17° WSW 19:47:10 10° SSW
Meteor 1-4 Rocket 4.1 19:43:27 10° NW 19:45:44 25° W 19:47:59 10° SSW
Meteor 1-11 Rocket 3.6 19:40:56 10° S 19:46:28 63° E 19:51:57 10° NNE
MOS 1 Rocket 4.3 19:45:38 25° ESE 19:47:43 35° ENE 19:52:30 10° N
CARTOSAT-1 3.9 19:46:35 10° S 19:50:48 64° W 19:55:02 10° NNW
ATLAS CENTAUR R/B 1.1 19:48:09 10° SSW 19:51:36 51° SE 19:54:53 12° NE
Cosmos 158 Rocket 3.8 19:46:53 10° S 19:51:38 56° ESE 19:56:24 10° NNE
NOSS 3-4 (A) 4.3 19:46:36 10° NW 19:52:50 44° NE 19:57:11 23° E
NOSS 3-4 (C) 4.4 19:46:42 10° NW 19:52:56 44° NE 19:57:18 23° E
Cosmos 1805 Rocket 3.8 19:52:47 29° SE 19:54:31 44° E 19:58:39 10° NNE
Cosmos 1428 Rocket 4.4 19:51:50 10° N 19:57:57 69° ENE 20:02:18 20° SSE
Cosmos 1733 3.1 19:55:20 10° SSW 19:58:46 73° WNW 20:02:12 10° N
In-Cosmos 22 4.4 19:54:56 10° NNW 20:00:38 76° W 20:06:00 11° S
USA 276 3.1 19:58:12 10° W 20:00:38 28° SSW 20:00:38 28° SSW
Cosmos 2369 Rocket 3.2 19:58:03 10° NNW 20:03:12 33° NE 20:05:12 26° E
Cosmos 1980 3.7 19:58:30 10° SSW 20:04:12 89° WNW 20:09:56 10° NNE
Meteor 1-21 4.5 20:02:33 10° N 20:08:12 53° ENE 20:10:23 34° SE
Sich 1 2.9 20:07:33 28° S 20:09:40 68° E 20:13:58 10° NNE
Cosmos 1943 Rocket 2.6 20:04:57 10° NW 20:10:22 59° WSW 20:14:05 20° S
BlueWalker 3 4.5 20:08:42 10° WSW 20:10:25 13° SW 20:12:08 10° SSW
Cosmos 1707 Rocket 4.4 20:07:03 10° N 20:11:04 33° ENE 20:11:04 33° ENE
DELTA 2 DEB (DPAF) 4.3 20:08:03 10° NNE 20:11:47 44° E 20:11:47 44° E
NOSS 0 Rocket 4.3 20:06:36 10° SW 20:12:48 66° NW 20:19:03 10° NNE
Cosmos 2298 Rocket 3.9 20:08:55 10° NNW 20:14:16 83° ENE 20:16:27 37° SSE
Terra 2.4 20:13:52 36° E 20:14:25 38° ENE 20:18:45 10° N
ACS3 Solar Sail 1.9 20:09:36 15° S 20:15:03 82° WSW 20:21:30 10° NNW
ERS-1 Rocket 3.3 20:14:03 39° ESE 20:15:09 46° ENE 20:19:58 10° N
Nadezhda 4 Rocket 4.3 20:09:03 10° NNW 20:15:16 69° W 20:21:31 10° S
Cosmos 2195 Rocket 4.3 20:09:18 10° N 20:15:28 82° E 20:19:11 25° SSE
Cosmos 2150 Rocket 3.9 20:10:46 10° NNW 20:15:57 85° ENE 20:17:56 39° SSE
USA 32 3.9 20:11:24 10° N 20:16:41 83° E 20:19:24 30° S
Cosmos 1570 Rocket 4.1 20:11:36 10° SSW 20:16:54 81° WNW 20:22:11 10° NNE
Cosmos 1975 3.6 20:18:59 36° NE 20:18:59 36° NE 20:21:42 10° NNE
OPS 6432 4.4 20:18:26 10° NW 20:21:15 65° NNW 20:21:15 65° NNW
Cosmos 1805 2.9 20:21:35 73° S 20:21:55 89° E 20:25:36 10° N
Cosmos 1315 Rocket 3.4 20:18:53 10° NNW 20:22:46 53° W 20:24:27 30° SSW
Cosmos 2026 Rocket 3.9 20:16:32 10° N 20:22:49 79° E 20:25:51 32° SSE
Cosmos 1092 Rocket 3.9 20:16:56 10° N 20:23:18 78° E 20:26:28 32° SSE
Ariane Rocket 3.7 20:24:21 35° ENE 20:24:46 35° ENE 20:29:21 10° N
Meteor 2-12 Rocket 4.4 20:20:26 10° N 20:26:36 70° ENE 20:28:55 40° SSE
Cosmos 836 Rocket 4.4 20:22:07 10° SSW 20:27:24 84° ESE 20:32:44 10° NNE
IRS-1A Rocket 4.3 20:26:27 42° SE 20:28:22 68° ENE 20:34:02 10° N
Okean 3 4.2 20:29:34 10° N 20:32:45 37° NE 20:32:45 37° NE
SL-16 R/B 2.3 20:35:16 50° ESE 20:35:16 50° ESE 20:40:33 10° NE
Okean O Rocket 2.8 20:35:02 21° SSW 20:37:32 40° W 20:41:44 10° NNW
Cosmos 1634 Rocket 3.9 20:36:32 35° S 20:39:18 71° E 20:45:36 10° NNE
Cosmos 1656 Rocket 3.6 20:34:37 10° NNW 20:40:18 71° ENE 20:41:19 57° ESE
USA 306 3.5 20:37:07 10° WNW 20:40:23 39° N 20:40:35 39° N
SL-14 R/B 3.5 20:36:41 10° NNW 20:40:26 59° W 20:40:36 58° WSW
USA 59 Rocket 2.9 20:40:30 10° W 20:42:38 13° WSW 20:45:02 10° SW
CZ-4 R/B 4.4 20:44:02 10° WSW 20:45:15 11° W 20:46:28 10° WNW
IRS-1C Rocket 4.0 20:45:02 61° SSE 20:45:58 83° ENE 20:51:17 10° NNW
Cosmos 773 Rocket 3.9 20:45:39 43° SSW 20:47:26 81° ESE 20:52:45 10° NNE
Cosmos 2278 Rocket 4.3 20:45:38 10° NW 20:49:49 21° W 20:53:59 10° SSW
Okean 1-7 4.3 20:45:58 10° N 20:48:39 29° NE 20:48:39 29° NE
Cosmos 2263 4.5 20:45:50 10° NNW 20:51:25 50° NE 20:51:55 49° ENE
Resurs 01 Rocket 4.2 20:49:35 10° SW 20:52:35 18° W 20:55:34 10° NW
Cosmos 2228 Rocket 3.1 20:50:57 10° N 20:55:20 81° NNW 20:55:20 81° NNW
Cosmos 1743 Rocket 4.3 20:56:20 34° SW 20:57:46 48° WNW 21:02:00 10° N
SPOT 3 Rocket 3.5 21:00:55 65° ENE 21:00:55 65° ENE 21:05:51 10° N
Okean-O 3.7 21:00:31 35° SW 21:01:25 39° W 21:05:35 10° NNW
SPOT 5 3.6 21:01:22 38° SW 21:02:17 43° W 21:06:34 10° NNW
Cosmos 2142 Rocket 4.4 21:02:36 61° E 21:02:36 61° E 21:08:38 10° NNE
NOSS 3-3 (C) 4.0 21:00:30 10° SW 21:05:59 73° NW 21:12:32 10° NE
ISS -1.2 21:02:40 10° W 21:03:42 18° W 21:03:42 18° W
USA 267 3.5 21:08:22 44° ENE 21:10:21 61° NNE 21:16:46 10° WNW
Cosmos 724 4.4 21:15:31 60° NE 21:15:31 60° NE 21:20:14 10° NE
Cosmos 2180 Rocket 4.5 21:17:01 68° E 21:17:01 68° E 21:23:16 10° NNE
Cosmos 2237 Rocket 3.9 21:14:00 10° WSW 21:19:00 32° NW 21:24:03 10° NNE
NOSS 3-3 (A) 4.3 21:14:48 10° WSW 21:20:16 59° NW 21:26:47 10° NE
Cosmos 2279 Rocket 3.9 21:19:59 69° SSW 21:20:50 87° W 21:27:06 10° N
Cosmos 1607 4.0 21:17:51 10° SW 21:24:20 84° NW 21:30:49 10° NE
Cosmos 2297 3.9 21:23:30 10° NW 21:28:59 60° WSW 21:28:59 60° WSW
ATLAS CENTAUR R/B 3.4 21:26:14 10° W 21:29:15 24° NW 21:29:51 23° NNW
Spot 2 Rocket 3.9 21:31:06 56° W 21:31:06 56° W 21:35:43 10° NNW
NOSS 3-4 (A) 3.9 21:37:21 10° NW 21:44:07 64° SW 21:44:37 63° SW
NOSS 3-4 (C) 3.9 21:37:27 10° NW 21:44:14 65° SW 21:44:43 63° SW
Cosmos 2369 Rocket 2.8 21:41:56 10° NW 21:46:58 52° W 21:46:58 52° W
Terra 3.4 21:52:34 29° W 21:52:34 29° W 21:56:12 10° NNW
ACS3 Solar Sail 4.2 21:56:17 10° WSW 22:00:04 16° W 22:03:51 10° NW
Ariane Rocket 4.3 22:04:30 34° WNW 22:04:30 34° WNW 22:08:20 10° NNW
Cosmos 2266 Rocket 4.4 22:03:56 10° NNW 22:09:40 59° WNW 22:09:40 59° WNW
SL-16 R/B 3.6 22:17:00 25° W 22:19:24 34° NW 22:24:35 10° NNE
ATLAS 2AS CENTAUR R/B 3.7 22:29:11 10° NW 22:35:32 36° NNE 22:36:31 35° NE
USA 267 4.1 22:55:43 40° WNW 22:55:43 40° WNW 22:59:52 10° WNW
Cosmos 1697 Rocket 4.3 22:48:41 10° NNW 22:52:28 28° NNE 22:52:28 28° NNE
Cosmos 2344 3.9 23:19:18 10° NW 23:27:14 85° WNW 23:27:14 85° WNW
Cosmos 1980 Rocket 3.8 23:48:52 10° NNW 23:52:13 30° N 23:52:13 30° N
